User: anonymous   Login
Location: Heidgraben
(53.7081°N, 9.6576°E)
Time: 21:41:58
(UTC+00:00)
Language:

PSLV R/B - Orbit

View from above orbital plane
View from above orbital plane
View from above satellite
View from above satellite

Ground track
Ground track

The orbit data is extracted from the following two-line orbital elements,

1 28651U 05017C   20263.33170095 +.00000019 +00000-0 +10774-4 0  9999
2 28651 097.9357 178.9397 0073002 218.9793 140.6140 14.73560242825813
Epoch (UTC): 19 September 2020 07:57:38
Eccentricity: 0.0073002
inclination: 97.9357°
perigee height: 598 km
apogee height: 701 km
right ascension of ascending node: 178.9397°
argument of perigee: 218.9793°
revolutions per day: 14.73560242
mean anomaly at epoch: 140.6140°
orbit number at epoch: 82581

The dashed part of the orbit path shows where the satellite is in the earth's shadow,  

DLR